Columbia Airport, CA

3:52 AM PDT on October 22, 2019 (GMT -0700)
Columbia Airport

Weather History for KO22 - August, 2019

Change the Weather History Date:

Tuesday, August 27, 2019

  Actual Average (KMOD) Record (KMOD)
Temperature  
Mean Temperature 82 °F -  
Max Temperature 100 °F 92 °F 106 °F (2017)
Min Temperature 64 °F 62 °F 48 °F (1942)
Degree Days  
Heating Degree Days 0 0  
Month to date heating degree days 0  
Since 1 June heating degree days 3  
Since 1 July heating degree days 0  
Cooling Degree Days 17 12  
Month to date cooling degree days 354  
Year to date cooling degree days 1289  
Since 1 June cooling degree days 1090  
Growing Degree Days 32 (Base 50)    
Moisture  
Dew Point 51 °F    
Average Humidity 41    
Maximum Humidity 68    
Minimum Humidity 12    
Precipitation  
Precipitation 0.00 in 0.00 in 0.09 in (1961)
Month to date precipitation 0.02  
Year to date precipitation 8.77  
Snow  
Snow 0.00 in - - ()
Month to date snowfall  
Since 1 June snowfall  
Since 1 July snowfall  
Snow Depth -    
Sea Level Pressure  
Sea Level Pressure 29.89 in    
Wind  
Wind Speed 1 mph (SW)    
Max Wind Speed 8 mph    
Max Gust Speed -    
Visibility 10 miles    
Events      
T = Trace of Precipitation, MM = Missing Value Source: NWS Daily Summary

Daily Weather History Graph

Daily Weather History Graph

Search for Another Location

Airport or City:

Astronomy

Aug. 27, 2019 Rise Set
Actual Time 6:27 AM PDT 7:38 PM PDT
Civil Twilight 5:59 AM PDT 8:05 PM PDT
Nautical Twilight 5:27 AM PDT 8:38 PM PDT
Astronomical Twilight 4:53 AM PDT 9:12 PM PDT
Moon 3:00 AM PDT (8/27) 6:00 PM PDT (8/27)
Length of Visible Light 14h 06m
Length of Day
13h 11m
Waning Crescent, 10% of the Moon is Illuminated
Aug 27
Waning Crescent
Aug 30
New
Sep 5
First Quarter
Sep 13
Full
Sep 21
Last Quarter

Hourly Weather History & Observations

Time (PDT) Temp. Heat Index Dew Point Humidity Pressure Visibility Wind Dir Wind Speed Gust Speed Precip Events Conditions
12:15 AM 71.6 °F - 55.4 °F 57% 29.92 in 10.0 mi Calm Calm - N/A   Clear
12:35 AM 71.6 °F - 55.4 °F 57% 29.91 in 10.0 mi Calm Calm - N/A   Clear
12:55 AM 69.8 °F - 55.4 °F 60% 29.92 in 10.0 mi Calm Calm - N/A   Clear
1:15 AM 69.8 °F - 55.4 °F 60% 29.92 in 10.0 mi Calm Calm - N/A   Clear
1:35 AM 68.0 °F - 55.4 °F 64% 29.91 in 10.0 mi Calm Calm - N/A   Clear
1:55 AM 68.0 °F - 55.4 °F 64% 29.91 in 10.0 mi Calm Calm - N/A   Clear
2:15 AM 68.0 °F - 55.4 °F 64% 29.91 in 10.0 mi Calm Calm - N/A   Clear
2:35 AM 66.2 °F - 55.4 °F 68% 29.91 in 10.0 mi Calm Calm - N/A   Clear
2:55 AM 66.2 °F - 55.4 °F 68% 29.90 in 10.0 mi North - - N/A   Clear
3:15 AM 66.2 °F - 55.4 °F 68% 29.90 in 10.0 mi Calm Calm - N/A   Clear
3:35 AM 66.2 °F - 55.4 °F 68% 29.90 in 10.0 mi Calm Calm - N/A   Clear
3:55 AM 66.2 °F - 55.4 °F 68% 29.90 in 10.0 mi Calm Calm - N/A   Clear
4:15 AM 66.2 °F - 55.4 °F 68% 29.89 in 10.0 mi Calm Calm - N/A   Clear
4:35 AM 66.2 °F - 53.6 °F 64% 29.89 in 10.0 mi Calm Calm - N/A   Clear
4:55 AM 66.2 °F - 53.6 °F 64% 29.89 in 10.0 mi Calm Calm - N/A   Clear
5:15 AM 66.2 °F - 53.6 °F 64% 29.89 in 10.0 mi Calm Calm - N/A   Clear
5:35 AM 66.2 °F - 53.6 °F 64% 29.89 in 10.0 mi Calm Calm - N/A   Clear
5:55 AM 66.2 °F - 53.6 °F 64% 29.89 in 10.0 mi Calm Calm - N/A   Clear
6:15 AM 66.2 °F - 53.6 °F 64% 29.89 in 10.0 mi Calm Calm - N/A   Clear
6:35 AM 64.4 °F - 53.6 °F 68% 29.90 in 10.0 mi Calm Calm - N/A   Clear
6:55 AM 66.2 °F - 53.6 °F 64% 29.90 in 10.0 mi Calm Calm - N/A   Clear
7:15 AM 66.2 °F - 55.4 °F 68% 29.91 in 10.0 mi Calm Calm - N/A   Clear
7:35 AM 68.0 °F - 55.4 °F 64% 29.91 in 10.0 mi Calm Calm - N/A   Clear
7:55 AM 71.6 °F - 57.2 °F 60% 29.91 in 10.0 mi Calm Calm - N/A   Clear
8:15 AM 75.2 °F - 59.0 °F 57% 29.91 in 10.0 mi North - - N/A   Clear
8:35 AM 78.8 °F - 59.0 °F 51% 29.91 in 10.0 mi Calm Calm - N/A   Clear
8:55 AM 82.4 °F 82.0 °F 57.2 °F 42% 29.91 in 10.0 mi Calm Calm - N/A   Clear
9:15 AM 84.2 °F 83.0 °F 55.4 °F 37% 29.91 in 10.0 mi Calm Calm - N/A   Clear
9:35 AM 87.8 °F 86.1 °F 55.4 °F 33% 29.92 in 10.0 mi Calm Calm - N/A   Clear
9:55 AM 89.6 °F 87.3 °F 53.6 °F 29% 29.92 in 10.0 mi Calm Calm - N/A   Clear
10:15 AM 89.6 °F - 51.8 °F 27% 29.91 in 10.0 mi Variable 3.5 mph - N/A   Clear
10:35 AM 89.6 °F 87.3 °F 53.6 °F 29% 29.92 in 10.0 mi Variable 4.6 mph - N/A   Clear
10:55 AM 93.2 °F - 51.8 °F 24% 29.91 in 10.0 mi Calm Calm - N/A   Clear
11:15 AM 93.2 °F 90.8 °F 53.6 °F 26% 29.91 in 10.0 mi Calm Calm - N/A   Clear
11:35 AM 95.0 °F - 51.8 °F 23% 29.91 in 10.0 mi Variable 5.8 mph - N/A   Clear
11:55 AM 91.4 °F 89.1 °F 53.6 °F 28% 29.91 in 10.0 mi Variable 5.8 mph - N/A   Clear
12:15 PM 95.0 °F 92.7 °F 53.6 °F 25% 29.91 in 10.0 mi Calm Calm - N/A   Clear
12:35 PM 96.8 °F 94.4 °F 53.6 °F 23% 29.90 in 10.0 mi Calm Calm - N/A   Clear
12:55 PM 96.8 °F - 51.8 °F 22% 29.90 in 10.0 mi Variable 4.6 mph - N/A   Clear
1:15 PM 98.6 °F - 50.0 °F 19% 29.89 in 10.0 mi Variable 4.6 mph - N/A   Clear
1:35 PM 98.6 °F - 46.4 °F 17% 29.89 in 10.0 mi Variable 4.6 mph - N/A   Clear
1:55 PM 100.4 °F - 44.6 °F 15% 29.89 in 10.0 mi Variable 5.8 mph - N/A   Clear
2:15 PM 98.6 °F - 42.8 °F 15% 29.89 in 10.0 mi Variable 4.6 mph - N/A   Clear
2:35 PM 100.4 °F - 39.2 °F 12% 29.88 in 10.0 mi Variable 5.8 mph - N/A   Clear
2:55 PM 100.4 °F - 39.2 °F 12% 29.88 in 10.0 mi Variable 6.9 mph - N/A   Clear
3:15 PM 100.4 °F - 41.0 °F 13% 29.87 in 10.0 mi SW 5.8 mph - N/A   Clear
3:35 PM 100.4 °F - 39.2 °F 12% 29.87 in 10.0 mi Variable 6.9 mph - N/A   Clear
3:55 PM 100.4 °F - 41.0 °F 13% 29.87 in 10.0 mi Variable 5.8 mph - N/A   Clear
4:15 PM 100.4 °F - 41.0 °F 13% 29.87 in 10.0 mi Variable 5.8 mph - N/A   Clear
4:35 PM 98.6 °F - 41.0 °F 14% 29.86 in 10.0 mi Variable 6.9 mph - N/A   Clear
4:55 PM 98.6 °F - 41.0 °F 14% 29.86 in 10.0 mi SW 8.1 mph - N/A   Clear
5:15 PM 96.8 °F - 42.8 °F 16% 29.86 in 10.0 mi Variable 8.1 mph - N/A   Clear
5:35 PM 95.0 °F - 44.6 °F 18% 29.86 in 10.0 mi Variable 5.8 mph - N/A   Clear
5:55 PM 95.0 °F - 44.6 °F 18% 29.86 in 10.0 mi Variable 5.8 mph - N/A   Clear
6:55 PM 91.4 °F - 44.6 °F 20% 29.86 in 10.0 mi Variable 6.9 mph - N/A   Clear
7:35 PM 87.8 °F - 46.4 °F 24% 29.87 in 10.0 mi Variable 5.8 mph - N/A   Clear
7:55 PM 86.0 °F - 46.4 °F 25% 29.87 in 10.0 mi Calm Calm - N/A   Clear
8:15 PM 86.0 °F - 48.2 °F 27% 29.87 in 10.0 mi Variable 3.5 mph - N/A   Clear
8:35 PM 82.4 °F - 50.0 °F 32% 29.88 in 10.0 mi Calm Calm - N/A   Clear
8:55 PM 80.6 °F - 51.8 °F 37% 29.88 in 10.0 mi Calm Calm - N/A   Clear
9:15 PM 78.8 °F - 51.8 °F 39% 29.88 in 10.0 mi Calm Calm - N/A   Clear
9:35 PM 77.0 °F - 51.8 °F 41% 29.89 in 10.0 mi Calm Calm - N/A   Clear
9:55 PM 77.0 °F - 51.8 °F 41% 29.89 in 10.0 mi Variable 3.5 mph - N/A   Clear
10:15 PM 75.2 °F - 51.8 °F 44% 29.89 in 10.0 mi Calm Calm - N/A   Clear
10:35 PM 75.2 °F - 51.8 °F 44% 29.90 in 10.0 mi Variable 3.5 mph - N/A   Clear
10:55 PM 73.4 °F - 51.8 °F 47% 29.90 in 10.0 mi Calm Calm - N/A   Clear
11:15 PM 73.4 °F - 51.8 °F 47% 29.90 in 10.0 mi Variable 3.5 mph - N/A   Clear
11:35 PM 73.4 °F - 51.8 °F 47% 29.91 in 10.0 mi Calm Calm - N/A   Clear
11:55 PM 71.6 °F - 51.8 °F 50% 29.91 in 10.0 mi North - - N/A   Clear